Anoka County, MN

9:18 PM CST on November 16, 2019 (GMT -0600)
Anoka County / Blaine Airport

Weather History for KANE - July, 2019

Change the Weather History Date:

Wednesday, July 31, 2019

  Actual Average Record
Temperature  
Mean Temperature 66 °F -  
Max Temperature 78 °F 79 °F 100 °F (2006)
Min Temperature 55 °F 60 °F 51 °F (1998)
Cooling Degree Days 2    
Growing Degree Days 16 (Base 50)    
Moisture  
Dew Point 57 °F    
Average Humidity 80    
Maximum Humidity 100    
Minimum Humidity 44    
Precipitation  
Precipitation 0.02 in - - ()
Sea Level Pressure  
Sea Level Pressure 30.16 in    
Wind  
Wind Speed 2 mph (SE)    
Max Wind Speed 10 mph    
Max Gust Speed -    
Visibility 10 miles    
Events      
Averages and records for this station are not official NWS values.
T = Trace of Precipitation, MM = Missing Value Source: NWS Daily Summary

Daily Weather History Graph

Daily Weather History Graph

Search for Another Location

Airport or City:

Astronomy

Jul. 31, 2019 Rise Set
Actual Time 5:56 AM CDT 8:41 PM CDT
Civil Twilight 5:22 AM CDT 9:15 PM CDT
Nautical Twilight 4:39 AM CDT 9:58 PM CDT
Astronomical Twilight 3:49 AM CDT 10:47 PM CDT
Moon 5:07 AM CDT (7/31) 8:42 PM CDT (7/31)
Length of Visible Light 15h 52m
Length of Day
14h 44m
Waning Crescent, 0% of the Moon is Illuminated
Jul 31
Waning Crescent
Jul 31
New
Aug 7
First Quarter
Aug 15
Full
Aug 23
Last Quarter

Hourly Weather History & Observations

Time (CDT) Temp. Dew Point Humidity Pressure Visibility Wind Dir Wind Speed Gust Speed Precip Events Conditions
12:16 AM 60.8 °F 57.2 °F 88% 30.15 in 10.0 mi Calm Calm - N/A   Clear
12:36 AM 59.0 °F 57.2 °F 94% 30.15 in 10.0 mi Calm Calm - N/A   Clear
12:58 AM 59.0 °F 57.2 °F 94% 30.15 in 10.0 mi Calm Calm - N/A   Clear
1:16 AM 57.2 °F 57.2 °F 100% 30.16 in 10.0 mi Calm Calm - N/A   Clear
1:36 AM 57.2 °F 57.2 °F 100% 30.16 in 10.0 mi Calm Calm - N/A   Clear
1:56 AM 57.2 °F 57.2 °F 100% 30.15 in 10.0 mi Calm Calm - N/A   Clear
2:15 AM 57.2 °F 55.4 °F 94% 30.15 in 10.0 mi Calm Calm - N/A   Clear
2:37 AM 57.2 °F 57.2 °F 100% 30.15 in 10.0 mi Calm Calm - N/A   Clear
2:56 AM 57.2 °F 55.4 °F 94% 30.16 in 10.0 mi Calm Calm - N/A   Clear
3:16 AM 57.2 °F 55.4 °F 94% 30.16 in 10.0 mi Calm Calm - N/A   Clear
3:36 AM 55.4 °F 55.4 °F 100% 30.16 in 10.0 mi Calm Calm - N/A   Clear
3:58 AM 55.4 °F 55.4 °F 100% 30.15 in 10.0 mi Calm Calm - N/A   Clear
4:17 AM 55.4 °F 55.4 °F 100% 30.16 in 10.0 mi Calm Calm - N/A   Clear
4:36 AM 55.4 °F 55.4 °F 100% 30.16 in 10.0 mi Calm Calm - N/A   Clear
4:56 AM 55.4 °F 55.4 °F 100% 30.15 in 10.0 mi Calm Calm - N/A   Clear
5:15 AM 57.2 °F 57.2 °F 100% 30.16 in 10.0 mi Calm Calm - N/A   Clear
5:20 AM 57.2 °F 57.2 °F 100% 30.16 in 10.0 mi Calm Calm - N/A   Clear
5:37 AM 55.4 °F 55.4 °F 100% 30.16 in 10.0 mi Calm Calm - N/A   Clear
5:55 AM 55.4 °F 55.4 °F 100% 30.16 in 10.0 mi Calm Calm - 0.01 in   Clear
6:15 AM 55.4 °F 55.4 °F 100% 30.17 in 10.0 mi Calm Calm - N/A   Clear
6:36 AM 55.4 °F 55.4 °F 100% 30.17 in 10.0 mi Calm Calm - N/A   Clear
6:58 AM 57.2 °F 57.2 °F 100% 30.17 in 10.0 mi Calm Calm - N/A   Clear
6:59 AM 57.2 °F 57.2 °F 100% 30.17 in 10.0 mi Calm Calm - N/A   Clear
7:45 AM 62.6 °F 60.8 °F 94% 30.19 in 10.0 mi Calm Calm - N/A   Partly Cloudy
8:45 AM 68.0 °F 57.2 °F 68% 30.19 in 10.0 mi SSE 8.1 mph - N/A   Partly Cloudy
9:50 AM 71.6 °F 55.4 °F 57% 30.18 in 10.0 mi South 6.9 mph - N/A   Partly Cloudy
10:45 AM 73.4 °F 53.6 °F 50% 30.19 in 10.0 mi South 9.2 mph - N/A   Scattered Clouds
11:45 AM 73.4 °F 55.4 °F 53% 30.18 in 10.0 mi SSE 10.4 mph - N/A   Scattered Clouds
12:45 PM 75.2 °F 55.4 °F 50% 30.17 in 10.0 mi SSE 10.4 mph - N/A   Scattered Clouds
1:45 PM 77.0 °F 53.6 °F 44% 30.16 in 10.0 mi South 10.4 mph - N/A   Scattered Clouds
2:45 PM 78.8 °F 57.2 °F 47% 30.15 in 10.0 mi SE 6.9 mph - N/A   Scattered Clouds
3:45 PM 78.8 °F 55.4 °F 44% 30.15 in 10.0 mi ESE 9.2 mph - N/A   Scattered Clouds
4:45 PM 78.8 °F 55.4 °F 44% 30.14 in 10.0 mi SE 6.9 mph - N/A   Scattered Clouds
5:45 PM 78.8 °F 55.4 °F 44% 30.13 in 10.0 mi SE 6.9 mph - N/A   Scattered Clouds
6:45 PM 78.8 °F 57.2 °F 47% 30.13 in 10.0 mi SE 5.8 mph - N/A   Mostly Cloudy
7:45 PM 75.2 °F 57.2 °F 53% 30.13 in 10.0 mi SE 5.8 mph - N/A   Mostly Cloudy
8:45 PM 73.4 °F 57.2 °F 57% 30.13 in 10.0 mi SE 4.6 mph - N/A   Scattered Clouds
9:45 PM 69.8 °F 59.0 °F 68% 30.14 in 10.0 mi SE 4.6 mph - N/A   Scattered Clouds
10:15 PM 68.0 °F 59.0 °F 73% 30.14 in 10.0 mi SE 3.5 mph - 0.01 in   Clear
10:36 PM 68.0 °F 59.0 °F 73% 30.14 in 10.0 mi SE 3.5 mph - 0.01 in   Clear
10:56 PM 66.2 °F 59.0 °F 78% 30.14 in 10.0 mi SSE 3.5 mph - N/A   Clear
11:18 PM 68.0 °F 57.2 °F 68% 30.14 in 10.0 mi SE 3.5 mph - N/A   Clear
11:37 PM 66.2 °F 57.2 °F 73% 30.14 in 10.0 mi SSE 4.6 mph - N/A   Clear
11:56 PM 68.0 °F 59.0 °F 73% 30.14 in 10.0 mi ESE 3.5 mph - N/A   Clear